owner,sensor,date,latitude,longitude,vertical_datum,mass_concentration_of_oxygen_in_sea_water,qcFlag 
DISL,ioos:station:DISL:BSCA:1,2013-09-01T00:00:00Z,30.3288,-87.8293,1.876,3.07,1111122 
DISL,ioos:station:DISL:BSCA:1,2013-09-01T00:30:00Z,30.3288,-87.8293,1.862,3.86,1111122 
DISL,ioos:station:DISL:BSCA:1,2013-09-01T01:00:00Z,30.3288,-87.8293,1.866,4.63,1111122 
DISL,ioos:station:DISL:BSCA:1,2013-09-01T01:30:00Z,30.3288,-87.8293,1.871,4.96,1111122 
DISL,ioos:station:DISL:BSCA:1,2013-09-01T02:00:00Z,30.3288,-87.8293,1.895,4.83,1111122 
DISL,ioos:station:DISL:BSCA:1,2013-09-01T02:30:00Z,30.3288,-87.8293,1.907,4.57,1111122 
DISL,ioos:station:DISL:BSCA:1,2013-09-01T03:00:00Z,30.3288,-87.8293,1.926,4.23,1111122 
DISL,ioos:station:DISL:BSCA:1,2013-09-01T03:30:00Z,30.3288,-87.8293,1.949,4.53,1111122 
DISL,ioos:station:DISL:BSCA:1,2013-09-01T04:00:00Z,30.3288,-87.8293,1.972,4.46,1111122 
DISL,ioos:station:DISL:BSCA:1,2013-09-01T04:30:00Z,30.3288,-87.8293,1.993,4.33,1111122 
DISL,ioos:station:DISL:BSCA:1,2013-09-01T05:00:00Z,30.3288,-87.8293,2.018,4.72,1111122 
DISL,ioos:station:DISL:BSCA:1,2013-09-01T05:30:00Z,30.3288,-87.8293,2.038,4.83,1111122 
DISL,ioos:station:DISL:BSCA:1,2013-09-01T06:00:00Z,30.3288,-87.8293,2.054,3.73,1111122 
DISL,ioos:station:DISL:BSCA:1,2013-09-01T06:30:00Z,30.3288,-87.8293,2.077,3.18,1111122 
DISL,ioos:station:DISL:BSCA:1,2013-09-01T07:00:00Z,30.3288,-87.8293,2.096,3.17,1111122 
DISL,ioos:station:DISL:BSCA:1,2013-09-01T07:30:00Z,30.3288,-87.8293,2.121,3.46,1111122 
DISL,ioos:station:DISL:BSCA:1,2013-09-01T08:00:00Z,30.3288,-87.8293,2.151,2.69,1111122 
DISL,ioos:station:DISL:BSCA:1,2013-09-01T08:30:00Z,30.3288,-87.8293,2.175,2.97,1111122 
DISL,ioos:station:DISL:BSCA:1,2013-09-01T09:00:00Z,30.3288,-87.8293,2.199,3.47,1111122 
DISL,ioos:station:DISL:BSCA:1,2013-09-01T09:30:00Z,30.3288,-87.8293,2.223,4.12,1111122 
DISL,ioos:station:DISL:BSCA:1,2013-09-01T10:00:00Z,30.3288,-87.8293,2.236,4.74,1111122 
DISL,ioos:station:DISL:BSCA:1,2013-09-01T10:30:00Z,30.3288,-87.8293,2.246,4.91,1111122 
DISL,ioos:station:DISL:BSCA:1,2013-09-01T11:00:00Z,30.3288,-87.8293,2.25,4.95,1111122 
DISL,ioos:station:DISL:BSCA:1,2013-09-01T11:30:00Z,30.3288,-87.8293,2.243,5.02,1111122 
DISL,ioos:station:DISL:BSCA:1,2013-09-01T12:00:00Z,30.3288,-87.8293,2.25,4.71,1111122 
DISL,ioos:station:DISL:BSCA:1,2013-09-01T12:30:00Z,30.3288,-87.8293,2.24,4.33,1111122 
DISL,ioos:station:DISL:BSCA:1,2013-09-01T13:00:00Z,30.3288,-87.8293,2.241,3.97,1111122 
DISL,ioos:station:DISL:BSCA:1,2013-09-01T13:30:00Z,30.3288,-87.8293,2.239,4.22,1111122 
DISL,ioos:station:DISL:BSCA:1,2013-09-01T14:00:00Z,30.3288,-87.8293,2.245,4.57,1111122 
DISL,ioos:station:DISL:BSCA:1,2013-09-01T14:30:00Z,30.3288,-87.8293,2.239,4.64,1111122 
DISL,ioos:station:DISL:BSCA:1,2013-09-01T15:00:00Z,30.3288,-87.8293,2.228,4.16,1111122 
DISL,ioos:station:DISL:BSCA:1,2013-09-01T15:30:00Z,30.3288,-87.8293,2.21,4.49,1111122 
DISL,ioos:station:DISL:BSCA:1,2013-09-01T16:00:00Z,30.3288,-87.8293,2.19,4.38,1111122 
DISL,ioos:station:DISL:BSCA:1,2013-09-01T16:30:00Z,30.3288,-87.8293,2.167,4.81,1111122 
DISL,ioos:station:DISL:BSCA:1,2013-09-01T17:00:00Z,30.3288,-87.8293,2.139,5.12,1111122 
DISL,ioos:station:DISL:BSCA:1,2013-09-01T17:30:00Z,30.3288,-87.8293,2.107,5.78,1111122 
DISL,ioos:station:DISL:BSCA:1,2013-09-01T18:00:00Z,30.3288,-87.8293,2.092,5.71,1111122 
DISL,ioos:station:DISL:BSCA:1,2013-09-01T18:30:00Z,30.3288,-87.8293,2.078,4.38,1111122 
DISL,ioos:station:DISL:BSCA:1,2013-09-01T19:00:00Z,30.3288,-87.8293,2.038,3.92,1111122 
DISL,ioos:station:DISL:BSCA:1,2013-09-01T19:30:00Z,30.3288,-87.8293,2.018,3.77,1111122 
DISL,ioos:station:DISL:BSCA:1,2013-09-01T20:00:00Z,30.3288,-87.8293,1.986,3.56,1111122 
DISL,ioos:station:DISL:BSCA:1,2013-09-01T20:30:00Z,30.3288,-87.8293,1.972,3.83,1111122 
DISL,ioos:station:DISL:BSCA:1,2013-09-01T21:00:00Z,30.3288,-87.8293,1.964,3.91,1111122 
DISL,ioos:station:DISL:BSCA:1,2013-09-01T21:30:00Z,30.3288,-87.8293,1.948,4.08,1111122 
DISL,ioos:station:DISL:BSCA:1,2013-09-01T22:00:00Z,30.3288,-87.8293,1.935,4.51,1111122 
DISL,ioos:station:DISL:BSCA:1,2013-09-01T22:30:00Z,30.3288,-87.8293,1.906,4.86,1111122 
DISL,ioos:station:DISL:BSCA:1,2013-09-01T23:00:00Z,30.3288,-87.8293,1.892,4.7,1111122 
DISL,ioos:station:DISL:BSCA:1,2013-09-01T23:30:00Z,30.3288,-87.8293,1.876,6.28,1111122 
DISL,ioos:station:DISL:BSCA:1,2013-09-02T00:00:00Z,30.3288,-87.8293,1.857,6.04,1111122 
DISL,ioos:station:DISL:BSCA:1,2013-09-02T00:30:00Z,30.3288,-87.8293,1.871,5.08,1111122 
DISL,ioos:station:DISL:BSCA:1,2013-09-02T01:00:00Z,30.3288,-87.8293,1.856,5.77,1111122 
DISL,ioos:station:DISL:BSCA:1,2013-09-02T01:30:00Z,30.3288,-87.8293,1.866,4.67,1111122 
DISL,ioos:station:DISL:BSCA:1,2013-09-02T02:00:00Z,30.3288,-87.8293,1.874,5.26,1111122 
DISL,ioos:station:DISL:BSCA:1,2013-09-02T02:30:00Z,30.3288,-87.8293,1.888,4.17,1111122 
DISL,ioos:station:DISL:BSCA:1,2013-09-02T03:00:00Z,30.3288,-87.8293,1.916,4.7,1111122 
DISL,ioos:station:DISL:BSCA:1,2013-09-02T03:30:00Z,30.3288,-87.8293,1.954,4.02,1111122 
DISL,ioos:station:DISL:BSCA:1,2013-09-02T04:00:00Z,30.3288,-87.8293,1.99,4.77,1111122 
DISL,ioos:station:DISL:BSCA:1,2013-09-02T04:30:00Z,30.3288,-87.8293,2.016,5.89,1111122 
DISL,ioos:station:DISL:BSCA:1,2013-09-02T05:00:00Z,30.3288,-87.8293,2.026,5.4,1111122 
DISL,ioos:station:DISL:BSCA:1,2013-09-02T05:30:00Z,30.3288,-87.8293,2.032,4.61,1111122 
DISL,ioos:station:DISL:BSCA:1,2013-09-02T06:00:00Z,30.3288,-87.8293,2.036,4.73,1111122 
DISL,ioos:station:DISL:BSCA:1,2013-09-02T06:30:00Z,30.3288,-87.8293,2.054,5.95,1111122 
DISL,ioos:station:DISL:BSCA:1,2013-09-02T07:00:00Z,30.3288,-87.8293,2.058,5.61,1111122 
DISL,ioos:station:DISL:BSCA:1,2013-09-02T07:30:00Z,30.3288,-87.8293,2.07,5.65,1111122 
DISL,ioos:station:DISL:BSCA:1,2013-09-02T08:00:00Z,30.3288,-87.8293,2.098,5.91,1111122 
DISL,ioos:station:DISL:BSCA:1,2013-09-02T08:30:00Z,30.3288,-87.8293,2.116,5.68,1111122 
DISL,ioos:station:DISL:BSCA:1,2013-09-02T09:00:00Z,30.3288,-87.8293,2.127,5.44,1111122 
DISL,ioos:station:DISL:BSCA:1,2013-09-02T09:30:00Z,30.3288,-87.8293,2.149,5.39,1111122 
DISL,ioos:station:DISL:BSCA:1,2013-09-02T10:00:00Z,30.3288,-87.8293,2.18,5.27,1111122 
DISL,ioos:station:DISL:BSCA:1,2013-09-02T10:30:00Z,30.3288,-87.8293,2.199,5.13,1111122 
DISL,ioos:station:DISL:BSCA:1,2013-09-02T11:00:00Z,30.3288,-87.8293,2.218,4.79,1111122 
DISL,ioos:station:DISL:BSCA:1,2013-09-02T11:30:00Z,30.3288,-87.8293,2.225,4.65,1111122 
DISL,ioos:station:DISL:BSCA:1,2013-09-02T12:00:00Z,30.3288,-87.8293,2.229,4.96,1111122 
DISL,ioos:station:DISL:BSCA:1,2013-09-02T12:30:00Z,30.3288,-87.8293,2.236,4.94,1111122 
DISL,ioos:station:DISL:BSCA:1,2013-09-02T13:00:00Z,30.3288,-87.8293,2.241,5.04,1111122 
DISL,ioos:station:DISL:BSCA:1,2013-09-02T13:30:00Z,30.3288,-87.8293,2.242,4.83,1111122 
DISL,ioos:station:DISL:BSCA:1,2013-09-02T14:00:00Z,30.3288,-87.8293,2.233,4.57,1111122 
DISL,ioos:station:DISL:BSCA:1,2013-09-02T14:30:00Z,30.3288,-87.8293,2.241,5.07,1111122 
DISL,ioos:station:DISL:BSCA:1,2013-09-02T15:00:00Z,30.3288,-87.8293,2.225,5.29,1111122 
DISL,ioos:station:DISL:BSCA:1,2013-09-02T15:30:00Z,30.3288,-87.8293,2.181,5.27,1111122 
DISL,ioos:station:DISL:BSCA:1,2013-09-02T16:00:00Z,30.3288,-87.8293,2.144,5.15,1111122 
DISL,ioos:station:DISL:BSCA:1,2013-09-02T16:30:00Z,30.3288,-87.8293,2.117,5.16,1111122 
DISL,ioos:station:DISL:BSCA:1,2013-09-02T17:00:00Z,30.3288,-87.8293,2.103,4.71,1111122 
DISL,ioos:station:DISL:BSCA:1,2013-09-02T17:30:00Z,30.3288,-87.8293,2.087,4.38,1111122 
DISL,ioos:station:DISL:BSCA:1,2013-09-02T18:00:00Z,30.3288,-87.8293,2.064,4.97,1111122 
DISL,ioos:station:DISL:BSCA:1,2013-09-02T18:30:00Z,30.3288,-87.8293,2.043,4.14,1111122 
DISL,ioos:station:DISL:BSCA:1,2013-09-02T19:00:00Z,30.3288,-87.8293,2.028,4.89,1111122 
DISL,ioos:station:DISL:BSCA:1,2013-09-02T19:30:00Z,30.3288,-87.8293,2.017,5.31,1111122 
DISL,ioos:station:DISL:BSCA:1,2013-09-02T20:00:00Z,30.3288,-87.8293,2.002,4.74,1111122 
DISL,ioos:station:DISL:BSCA:1,2013-09-02T20:30:00Z,30.3288,-87.8293,1.987,5.24,1111122 
DISL,ioos:station:DISL:BSCA:1,2013-09-02T21:00:00Z,30.3288,-87.8293,1.942,5.18,1111122 
DISL,ioos:station:DISL:BSCA:1,2013-09-02T21:30:00Z,30.3288,-87.8293,1.932,5.91,1111122 
DISL,ioos:station:DISL:BSCA:1,2013-09-02T22:00:00Z,30.3288,-87.8293,1.889,6.63,1111122 
DISL,ioos:station:DISL:BSCA:1,2013-09-02T22:30:00Z,30.3288,-87.8293,1.885,6.52,1111122 
DISL,ioos:station:DISL:BSCA:1,2013-09-02T23:00:00Z,30.3288,-87.8293,1.87,6.57,1111122 
DISL,ioos:station:DISL:BSCA:1,2013-09-02T23:30:00Z,30.3288,-87.8293,1.859,6.65,1111122 
DISL,ioos:station:DISL:BSCA:1,2013-09-03T00:00:00Z,30.3288,-87.8293,1.852,6.72,1111122 
DISL,ioos:station:DISL:BSCA:1,2013-09-03T00:30:00Z,30.3288,-87.8293,1.841,6.51,1111122 
DISL,ioos:station:DISL:BSCA:1,2013-09-03T01:00:00Z,30.3288,-87.8293,1.852,6.55,1111122 
DISL,ioos:station:DISL:BSCA:1,2013-09-03T01:30:00Z,30.3288,-87.8293,1.872,6.63,1111122 
DISL,ioos:station:DISL:BSCA:1,2013-09-03T02:00:00Z,30.3288,-87.8293,1.882,6.46,1111122 
DISL,ioos:station:DISL:BSCA:1,2013-09-03T02:30:00Z,30.3288,-87.8293,1.915,6.11,1111122 
DISL,ioos:station:DISL:BSCA:1,2013-09-03T03:00:00Z,30.3288,-87.8293,1.957,5.97,1111122 
DISL,ioos:station:DISL:BSCA:1,2013-09-03T03:30:00Z,30.3288,-87.8293,1.982,5.92,1111122 
DISL,ioos:station:DISL:BSCA:1,2013-09-03T04:00:00Z,30.3288,-87.8293,2.006,6.11,1111122 
DISL,ioos:station:DISL:BSCA:1,2013-09-03T04:30:00Z,30.3288,-87.8293,2.024,5.5,1111122 
DISL,ioos:station:DISL:BSCA:1,2013-09-03T05:00:00Z,30.3288,-87.8293,2.046,5.92,1111122 
DISL,ioos:station:DISL:BSCA:1,2013-09-03T05:30:00Z,30.3288,-87.8293,2.05,5.92,1111122 
DISL,ioos:station:DISL:BSCA:1,2013-09-03T06:00:00Z,30.3288,-87.8293,2.063,5.89,1111122 
DISL,ioos:station:DISL:BSCA:1,2013-09-03T06:30:00Z,30.3288,-87.8293,2.06,6.12,1111122 
DISL,ioos:station:DISL:BSCA:1,2013-09-03T07:00:00Z,30.3288,-87.8293,2.078,5.48,1111122 
DISL,ioos:station:DISL:BSCA:1,2013-09-03T07:30:00Z,30.3288,-87.8293,2.096,5.42,1111122 
DISL,ioos:station:DISL:BSCA:1,2013-09-03T08:00:00Z,30.3288,-87.8293,2.096,5.41,1111122 
DISL,ioos:station:DISL:BSCA:1,2013-09-03T08:30:00Z,30.3288,-87.8293,2.112,5.56,1111122 
DISL,ioos:station:DISL:BSCA:1,2013-09-03T09:00:00Z,30.3288,-87.8293,2.108,5.2,1111122 
DISL,ioos:station:DISL:BSCA:1,2013-09-03T09:30:00Z,30.3288,-87.8293,2.123,5.5,1111122 
DISL,ioos:station:DISL:BSCA:1,2013-09-03T10:00:00Z,30.3288,-87.8293,2.121,5.24,1111122 
DISL,ioos:station:DISL:BSCA:1,2013-09-03T10:30:00Z,30.3288,-87.8293,2.128,4.9,1111122 
DISL,ioos:station:DISL:BSCA:1,2013-09-03T11:00:00Z,30.3288,-87.8293,2.152,4.22,1111122 
DISL,ioos:station:DISL:BSCA:1,2013-09-03T11:30:00Z,30.3288,-87.8293,2.155,4.67,1111122 
DISL,ioos:station:DISL:BSCA:1,2013-09-03T12:00:00Z,30.3288,-87.8293,2.182,4.89,1111122 
DISL,ioos:station:DISL:BSCA:1,2013-09-03T12:30:00Z,30.3288,-87.8293,2.168,3.88,1111122 
DISL,ioos:station:DISL:BSCA:1,2013-09-03T13:00:00Z,30.3288,-87.8293,2.162,3.8,1111122 
DISL,ioos:station:DISL:BSCA:1,2013-09-03T13:30:00Z,30.3288,-87.8293,2.169,3.38,1111122 
DISL,ioos:station:DISL:BSCA:1,2013-09-03T14:00:00Z,30.3288,-87.8293,2.176,4.7,1111122 
DISL,ioos:station:DISL:BSCA:1,2013-09-03T14:30:00Z,30.3288,-87.8293,2.204,3.43,1111122 
DISL,ioos:station:DISL:BSCA:1,2013-09-03T15:00:00Z,30.3288,-87.8293,2.207,4.02,1111122 
DISL,ioos:station:DISL:BSCA:1,2013-09-03T15:30:00Z,30.3288,-87.8293,2.206,4.34,1111122 
DISL,ioos:station:DISL:BSCA:1,2013-09-03T16:00:00Z,30.3288,-87.8293,2.205,3.72,1111122 
DISL,ioos:station:DISL:BSCA:1,2013-09-03T16:30:00Z,30.3288,-87.8293,2.185,4.13,1111122 
DISL,ioos:station:DISL:BSCA:1,2013-09-03T17:00:00Z,30.3288,-87.8293,2.181,3.99,1111122 
DISL,ioos:station:DISL:BSCA:1,2013-09-03T17:30:00Z,30.3288,-87.8293,2.157,3.85,1111122 
DISL,ioos:station:DISL:BSCA:1,2013-09-03T18:00:00Z,30.3288,-87.8293,2.138,3.84,1111122 
DISL,ioos:station:DISL:BSCA:1,2013-09-03T18:30:00Z,30.3288,-87.8293,2.113,4.28,1111122 
DISL,ioos:station:DISL:BSCA:1,2013-09-03T19:00:00Z,30.3288,-87.8293,2.083,5.34,1111122 
DISL,ioos:station:DISL:BSCA:1,2013-09-03T19:30:00Z,30.3288,-87.8293,2.066,6.44,1111122 
DISL,ioos:station:DISL:BSCA:1,2013-09-03T20:00:00Z,30.3288,-87.8293,2.036,6.89,1111122 
DISL,ioos:station:DISL:BSCA:1,2013-09-03T20:30:00Z,30.3288,-87.8293,2.017,6.12,1111122 
DISL,ioos:station:DISL:BSCA:1,2013-09-03T21:00:00Z,30.3288,-87.8293,1.985,5.39,1111122 
DISL,ioos:station:DISL:BSCA:1,2013-09-03T21:30:00Z,30.3288,-87.8293,1.968,5.61,1111122 
DISL,ioos:station:DISL:BSCA:1,2013-09-03T22:00:00Z,30.3288,-87.8293,1.926,6.11,1111122 
DISL,ioos:station:DISL:BSCA:1,2013-09-03T22:30:00Z,30.3288,-87.8293,1.895,6.53,1111122 
DISL,ioos:station:DISL:BSCA:1,2013-09-03T23:00:00Z,30.3288,-87.8293,1.896,6.4,1111122 
DISL,ioos:station:DISL:BSCA:1,2013-09-03T23:30:00Z,30.3288,-87.8293,1.946,6.96,1111122 
DISL,ioos:station:DISL:BSCA:1,2013-09-04T00:00:00Z,30.3288,-87.8293,2.0,7.01,1111122 
DISL,ioos:station:DISL:BSCA:1,2013-09-04T00:30:00Z,30.3288,-87.8293,2.075,6.35,1111122 
DISL,ioos:station:DISL:BSCA:1,2013-09-04T01:00:00Z,30.3288,-87.8293,1.845,6.12,1111122 
DISL,ioos:station:DISL:BSCA:1,2013-09-04T01:30:00Z,30.3288,-87.8293,1.832,6.27,1111122 
DISL,ioos:station:DISL:BSCA:1,2013-09-04T02:00:00Z,30.3288,-87.8293,1.758,5.13,1111122 
DISL,ioos:station:DISL:BSCA:1,2013-09-04T02:30:00Z,30.3288,-87.8293,1.8,5.59,1111122 
DISL,ioos:station:DISL:BSCA:1,2013-09-04T03:00:00Z,30.3288,-87.8293,1.828,5.48,1111122 
DISL,ioos:station:DISL:BSCA:1,2013-09-04T03:30:00Z,30.3288,-87.8293,1.86,3.77,1111122 
DISL,ioos:station:DISL:BSCA:1,2013-09-04T04:00:00Z,30.3288,-87.8293,1.881,4.27,1111122 
DISL,ioos:station:DISL:BSCA:1,2013-09-04T04:30:00Z,30.3288,-87.8293,1.92,3.1,1111122 
DISL,ioos:station:DISL:BSCA:1,2013-09-04T05:00:00Z,30.3288,-87.8293,1.967,3.49,1111122 
DISL,ioos:station:DISL:BSCA:1,2013-09-04T05:30:00Z,30.3288,-87.8293,1.987,2.12,1111122 
DISL,ioos:station:DISL:BSCA:1,2013-09-04T06:00:00Z,30.3288,-87.8293,1.995,1.88,1111122 
DISL,ioos:station:DISL:BSCA:1,2013-09-04T06:30:00Z,30.3288,-87.8293,1.999,3.82,1111122 
DISL,ioos:station:DISL:BSCA:1,2013-09-04T07:00:00Z,30.3288,-87.8293,1.977,3.92,1111122 
DISL,ioos:station:DISL:BSCA:1,2013-09-04T07:30:00Z,30.3288,-87.8293,1.97,2.25,1111122 
DISL,ioos:station:DISL:BSCA:1,2013-09-04T08:00:00Z,30.3288,-87.8293,1.971,3.88,1111122 
DISL,ioos:station:DISL:BSCA:1,2013-09-04T08:30:00Z,30.3288,-87.8293,1.987,2.85,1111122 
DISL,ioos:station:DISL:BSCA:1,2013-09-04T09:00:00Z,30.3288,-87.8293,2.01,4.14,1111122 
DISL,ioos:station:DISL:BSCA:1,2013-09-04T09:30:00Z,30.3288,-87.8293,2.011,3.77,1111122 
DISL,ioos:station:DISL:BSCA:1,2013-09-04T10:00:00Z,30.3288,-87.8293,2.004,4.25,1111122 
DISL,ioos:station:DISL:BSCA:1,2013-09-04T10:30:00Z,30.3288,-87.8293,2.009,3.23,1111122 
DISL,ioos:station:DISL:BSCA:1,2013-09-04T11:00:00Z,30.3288,-87.8293,2.006,2.63,1111122 
DISL,ioos:station:DISL:BSCA:1,2013-09-04T11:30:00Z,30.3288,-87.8293,2.033,2.22,1111122 
DISL,ioos:station:DISL:BSCA:1,2013-09-04T12:00:00Z,30.3288,-87.8293,2.056,3.79,1111122 
DISL,ioos:station:DISL:BSCA:1,2013-09-04T12:30:00Z,30.3288,-87.8293,2.081,3.28,1111122 
DISL,ioos:station:DISL:BSCA:1,2013-09-04T13:00:00Z,30.3288,-87.8293,2.108,3.53,1111122 
DISL,ioos:station:DISL:BSCA:1,2013-09-04T13:30:00Z,30.3288,-87.8293,2.134,3.64,1111122 
DISL,ioos:station:DISL:BSCA:1,2013-09-04T14:00:00Z,30.3288,-87.8293,2.148,3.44,1111122 
DISL,ioos:station:DISL:BSCA:1,2013-09-04T14:30:00Z,30.3288,-87.8293,2.177,3.54,1111122 
DISL,ioos:station:DISL:BSCA:1,2013-09-04T15:00:00Z,30.3288,-87.8293,2.19,3.89,1111122 
DISL,ioos:station:DISL:BSCA:1,2013-09-04T15:30:00Z,30.3288,-87.8293,2.198,3.54,1111122 
DISL,ioos:station:DISL:BSCA:1,2013-09-04T16:00:00Z,30.3288,-87.8293,2.198,4.08,1111122 
DISL,ioos:station:DISL:BSCA:1,2013-09-04T16:30:00Z,30.3288,-87.8293,2.177,3.67,1111122 
DISL,ioos:station:DISL:BSCA:1,2013-09-04T17:00:00Z,30.3288,-87.8293,2.176,2.61,1111122 
DISL,ioos:station:DISL:BSCA:1,2013-09-04T17:30:00Z,30.3288,-87.8293,2.165,3.72,1111122 
DISL,ioos:station:DISL:BSCA:1,2013-09-04T18:00:00Z,30.3288,-87.8293,2.164,3.63,1111122 
DISL,ioos:station:DISL:BSCA:1,2013-09-04T18:30:00Z,30.3288,-87.8293,2.141,4.5,1111122 
DISL,ioos:station:DISL:BSCA:1,2013-09-04T19:00:00Z,30.3288,-87.8293,2.119,4.44,1111122 
DISL,ioos:station:DISL:BSCA:1,2013-09-04T19:30:00Z,30.3288,-87.8293,2.083,4.0,1111122 
DISL,ioos:station:DISL:BSCA:1,2013-09-04T20:00:00Z,30.3288,-87.8293,2.059,5.54,1111122 
DISL,ioos:station:DISL:BSCA:1,2013-09-04T20:30:00Z,30.3288,-87.8293,2.013,5.84,1111122 
DISL,ioos:station:DISL:BSCA:1,2013-09-04T21:00:00Z,30.3288,-87.8293,1.971,6.15,1111122 
DISL,ioos:station:DISL:BSCA:1,2013-09-04T21:30:00Z,30.3288,-87.8293,1.947,5.64,1111122 
DISL,ioos:station:DISL:BSCA:1,2013-09-04T22:00:00Z,30.3288,-87.8293,1.916,6.11,1111122 
DISL,ioos:station:DISL:BSCA:1,2013-09-04T22:30:00Z,30.3288,-87.8293,1.898,6.14,1111122 
DISL,ioos:station:DISL:BSCA:1,2013-09-04T23:00:00Z,30.3288,-87.8293,1.892,6.73,1111122 
DISL,ioos:station:DISL:BSCA:1,2013-09-04T23:30:00Z,30.3288,-87.8293,1.888,6.3,1111122 
DISL,ioos:station:DISL:BSCA:1,2013-09-05T00:00:00Z,30.3288,-87.8293,1.901,6.16,1111122 
DISL,ioos:station:DISL:BSCA:1,2013-09-05T00:30:00Z,30.3288,-87.8293,1.897,5.69,1111122 
DISL,ioos:station:DISL:BSCA:1,2013-09-05T01:00:00Z,30.3288,-87.8293,1.904,5.18,1111122 
DISL,ioos:station:DISL:BSCA:1,2013-09-05T01:30:00Z,30.3288,-87.8293,1.896,6.03,1111122 
DISL,ioos:station:DISL:BSCA:1,2013-09-05T02:00:00Z,30.3288,-87.8293,1.9,5.7,1111122 
DISL,ioos:station:DISL:BSCA:1,2013-09-05T02:30:00Z,30.3288,-87.8293,1.887,5.84,1111122 
DISL,ioos:station:DISL:BSCA:1,2013-09-05T03:00:00Z,30.3288,-87.8293,1.901,5.73,1111122 
DISL,ioos:station:DISL:BSCA:1,2013-09-05T03:30:00Z,30.3288,-87.8293,1.918,5.42,1111122 
DISL,ioos:station:DISL:BSCA:1,2013-09-05T04:00:00Z,30.3288,-87.8293,1.92,4.3,1111122 
DISL,ioos:station:DISL:BSCA:1,2013-09-05T04:30:00Z,30.3288,-87.8293,1.938,4.6,1111122 
DISL,ioos:station:DISL:BSCA:1,2013-09-05T05:00:00Z,30.3288,-87.8293,1.954,3.54,1111122 
DISL,ioos:station:DISL:BSCA:1,2013-09-05T05:30:00Z,30.3288,-87.8293,1.954,4.63,1111122 
DISL,ioos:station:DISL:BSCA:1,2013-09-05T06:00:00Z,30.3288,-87.8293,1.974,3.17,1111122 
DISL,ioos:station:DISL:BSCA:1,2013-09-05T06:30:00Z,30.3288,-87.8293,1.988,4.58,1111122 
DISL,ioos:station:DISL:BSCA:1,2013-09-05T07:00:00Z,30.3288,-87.8293,1.98,3.66,1111122 
DISL,ioos:station:DISL:BSCA:1,2013-09-05T07:30:00Z,30.3288,-87.8293,1.982,3.36,1111122 
DISL,ioos:station:DISL:BSCA:1,2013-09-05T08:00:00Z,30.3288,-87.8293,1.977,3.37,1111122 
DISL,ioos:station:DISL:BSCA:1,2013-09-05T08:30:00Z,30.3288,-87.8293,1.962,2.42,1111122 
DISL,ioos:station:DISL:BSCA:1,2013-09-05T09:00:00Z,30.3288,-87.8293,1.945,3.3,1111122 
DISL,ioos:station:DISL:BSCA:1,2013-09-05T09:30:00Z,30.3288,-87.8293,1.955,3.58,1111122 
DISL,ioos:station:DISL:BSCA:1,2013-09-05T10:00:00Z,30.3288,-87.8293,1.96,3.16,1111122 
DISL,ioos:station:DISL:BSCA:1,2013-09-05T10:30:00Z,30.3288,-87.8293,1.951,4.02,1111122 
DISL,ioos:station:DISL:BSCA:1,2013-09-05T11:00:00Z,30.3288,-87.8293,1.95,4.06,1111122 
DISL,ioos:station:DISL:BSCA:1,2013-09-05T11:30:00Z,30.3288,-87.8293,1.963,3.99,1111122 
DISL,ioos:station:DISL:BSCA:1,2013-09-05T12:00:00Z,30.3288,-87.8293,1.965,4.13,1111122 
DISL,ioos:station:DISL:BSCA:1,2013-09-05T12:30:00Z,30.3288,-87.8293,2.001,3.74,1111122 
DISL,ioos:station:DISL:BSCA:1,2013-09-05T13:00:00Z,30.3288,-87.8293,2.015,3.3,1111122 
DISL,ioos:station:DISL:BSCA:1,2013-09-05T13:30:00Z,30.3288,-87.8293,2.031,3.0,1111122 
DISL,ioos:station:DISL:BSCA:1,2013-09-05T14:00:00Z,30.3288,-87.8293,2.04,1.67,1111122 
DISL,ioos:station:DISL:BSCA:1,2013-09-05T14:30:00Z,30.3288,-87.8293,2.06,1.99,1111122 
DISL,ioos:station:DISL:BSCA:1,2013-09-05T15:00:00Z,30.3288,-87.8293,2.087,2.73,1111122 
DISL,ioos:station:DISL:BSCA:1,2013-09-05T15:30:00Z,30.3288,-87.8293,2.105,2.56,1111122 
DISL,ioos:station:DISL:BSCA:1,2013-09-05T16:00:00Z,30.3288,-87.8293,2.127,3.08,1111122 
DISL,ioos:station:DISL:BSCA:1,2013-09-05T16:30:00Z,30.3288,-87.8293,2.133,2.81,1111122 
DISL,ioos:station:DISL:BSCA:1,2013-09-05T17:00:00Z,30.3288,-87.8293,2.139,2.8,1111122 
DISL,ioos:station:DISL:BSCA:1,2013-09-05T17:30:00Z,30.3288,-87.8293,2.144,2.62,1111122 
DISL,ioos:station:DISL:BSCA:1,2013-09-05T18:00:00Z,30.3288,-87.8293,2.133,3.2,1111122 
DISL,ioos:station:DISL:BSCA:1,2013-09-05T18:30:00Z,30.3288,-87.8293,2.127,2.47,1111122 
DISL,ioos:station:DISL:BSCA:1,2013-09-05T19:00:00Z,30.3288,-87.8293,2.113,2.51,1111122 
DISL,ioos:station:DISL:BSCA:1,2013-09-05T19:30:00Z,30.3288,-87.8293,2.107,3.04,1111122 
DISL,ioos:station:DISL:BSCA:1,2013-09-05T20:00:00Z,30.3288,-87.8293,2.084,4.28,1111122 
DISL,ioos:station:DISL:BSCA:1,2013-09-05T20:30:00Z,30.3288,-87.8293,2.059,4.38,1111122 
DISL,ioos:station:DISL:BSCA:1,2013-09-05T21:00:00Z,30.3288,-87.8293,2.033,4.03,1111122 
DISL,ioos:station:DISL:BSCA:1,2013-09-05T21:30:00Z,30.3288,-87.8293,2.0,3.86,1111122 
DISL,ioos:station:DISL:BSCA:1,2013-09-05T22:00:00Z,30.3288,-87.8293,1.978,4.07,1111122 
DISL,ioos:station:DISL:BSCA:1,2013-09-05T22:30:00Z,30.3288,-87.8293,1.965,3.53,1111122 
DISL,ioos:station:DISL:BSCA:1,2013-09-05T23:00:00Z,30.3288,-87.8293,1.943,2.97,1111122 
DISL,ioos:station:DISL:BSCA:1,2013-09-05T23:30:00Z,30.3288,-87.8293,1.938,3.91,1111122 
DISL,ioos:station:DISL:BSCA:1,2013-09-06T00:00:00Z,30.3288,-87.8293,1.94,4.67,1111122 
DISL,ioos:station:DISL:BSCA:1,2013-09-06T00:30:00Z,30.3288,-87.8293,1.947,5.45,1111122 
DISL,ioos:station:DISL:BSCA:1,2013-09-06T01:00:00Z,30.3288,-87.8293,1.964,5.1,1111122 
DISL,ioos:station:DISL:BSCA:1,2013-09-06T01:30:00Z,30.3288,-87.8293,1.966,5.02,1111122 
DISL,ioos:station:DISL:BSCA:1,2013-09-06T02:00:00Z,30.3288,-87.8293,1.976,4.41,1111122 
DISL,ioos:station:DISL:BSCA:1,2013-09-06T02:30:00Z,30.3288,-87.8293,1.977,5.61,1111122 
DISL,ioos:station:DISL:BSCA:1,2013-09-06T03:00:00Z,30.3288,-87.8293,1.989,3.28,1111122 
DISL,ioos:station:DISL:BSCA:1,2013-09-06T03:30:00Z,30.3288,-87.8293,1.996,4.93,1111122 
DISL,ioos:station:DISL:BSCA:1,2013-09-06T04:00:00Z,30.3288,-87.8293,2.01,4.07,1111122 
DISL,ioos:station:DISL:BSCA:1,2013-09-06T04:30:00Z,30.3288,-87.8293,2.009,3.97,1111122 
DISL,ioos:station:DISL:BSCA:1,2013-09-06T05:00:00Z,30.3288,-87.8293,2.006,3.04,1111122 
DISL,ioos:station:DISL:BSCA:1,2013-09-06T05:30:00Z,30.3288,-87.8293,2.003,4.77,1111122 
DISL,ioos:station:DISL:BSCA:1,2013-09-06T06:00:00Z,30.3288,-87.8293,1.995,5.14,1111122 
DISL,ioos:station:DISL:BSCA:1,2013-09-06T06:30:00Z,30.3288,-87.8293,1.997,4.35,1111122 
DISL,ioos:station:DISL:BSCA:1,2013-09-06T07:00:00Z,30.3288,-87.8293,1.999,4.71,1111122 
DISL,ioos:station:DISL:BSCA:1,2013-09-06T07:30:00Z,30.3288,-87.8293,2.006,4.89,1111122 
DISL,ioos:station:DISL:BSCA:1,2013-09-06T08:00:00Z,30.3288,-87.8293,1.995,4.16,1111122 
DISL,ioos:station:DISL:BSCA:1,2013-09-06T08:30:00Z,30.3288,-87.8293,1.992,3.75,1111122 
DISL,ioos:station:DISL:BSCA:1,2013-09-06T09:00:00Z,30.3288,-87.8293,1.972,3.24,1111122 
DISL,ioos:station:DISL:BSCA:1,2013-09-06T09:30:00Z,30.3288,-87.8293,1.965,3.41,1111122 
DISL,ioos:station:DISL:BSCA:1,2013-09-06T10:00:00Z,30.3288,-87.8293,1.953,3.15,1111122 
DISL,ioos:station:DISL:BSCA:1,2013-09-06T10:30:00Z,30.3288,-87.8293,1.935,3.3,1111122 
DISL,ioos:station:DISL:BSCA:1,2013-09-06T11:00:00Z,30.3288,-87.8293,1.931,2.46,1111122 
DISL,ioos:station:DISL:BSCA:1,2013-09-06T11:30:00Z,30.3288,-87.8293,1.916,2.9,1111122 
DISL,ioos:station:DISL:BSCA:1,2013-09-06T12:00:00Z,30.3288,-87.8293,1.917,2.64,1111122 
DISL,ioos:station:DISL:BSCA:1,2013-09-06T12:30:00Z,30.3288,-87.8293,1.921,2.44,1111122 
DISL,ioos:station:DISL:BSCA:1,2013-09-06T13:00:00Z,30.3288,-87.8293,1.942,3.05,1111122 
DISL,ioos:station:DISL:BSCA:1,2013-09-06T13:30:00Z,30.3288,-87.8293,1.939,2.24,1111122 
DISL,ioos:station:DISL:BSCA:1,2013-09-06T14:00:00Z,30.3288,-87.8293,1.958,2.25,1111122 
DISL,ioos:station:DISL:BSCA:1,2013-09-06T14:30:00Z,30.3288,-87.8293,1.949,1.5,1111122 
DISL,ioos:station:DISL:BSCA:1,2013-09-06T15:00:00Z,30.3288,-87.8293,1.969,2.61,1111122 
DISL,ioos:station:DISL:BSCA:1,2013-09-06T15:30:00Z,30.3288,-87.8293,1.98,1.85,1111122 